Faro, Portugal

1:18 AM WET on November 23, 2019 (GMT +0000)
Faro

Weather History for LPFR - September, 2019

Change the Weather History Date:

Thursday, September 19, 2019

  Actual Average Record
Temperature  
Mean Temperature 70 °F -  
Max Temperature 78 °F 73 °F 86 °F (2018)
Min Temperature 62 °F 60 °F 57 °F (1996)
Cooling Degree Days 5    
Growing Degree Days 20 (Base 50)    
Moisture  
Dew Point 60 °F    
Average Humidity 66    
Maximum Humidity 83    
Minimum Humidity 41    
Precipitation  
Precipitation 0.00 in 0.06 in - ()
Sea Level Pressure  
Sea Level Pressure 30.00 in    
Wind  
Wind Speed 7 mph ()    
Max Wind Speed 15 mph    
Max Gust Speed -    
Visibility 8.6 miles    
Events      
Averages and records for this station are not official NWS values.
T = Trace of Precipitation, MM = Missing Value Source: Averaged Metar Reports

Daily Weather History Graph

Daily Weather History Graph

Search for Another Location

Airport or City:

Astronomy

Sep. 19, 2019 Rise Set
Actual Time 7:16 AM WEST 7:34 PM WEST
Civil Twilight 6:50 AM WEST 7:59 PM WEST
Nautical Twilight 6:20 AM WEST 8:30 PM WEST
Astronomical Twilight 5:49 AM WEST 9:01 PM WEST
Moon 10:41 PM WEST (9/19) 12:00 PM WEST (9/19)
Length of Visible Light 13h 09m
Length of Day
12h 17m
Waning Gibbous, 76% of the Moon is Illuminated
Sep 19
Waning Gibbous
Sep 22
Last Quarter
Sep 28
New
Oct 5
First Quarter
Oct 13
Full

Hourly Weather History & Observations

Time (WEST) Temp. Dew Point Humidity Pressure Visibility Wind Dir Wind Speed Gust Speed Precip Events Conditions
12:00 AM 69 °F 57 °F 58% 30.05 in - WNW 6.7 mph - -  
12:00 AM 69.8 °F 57.2 °F 64% 30.01 in - WNW 5.8 mph - N/A   Clear
12:30 AM 69.8 °F 57.2 °F 64% 30.01 in - WNW 8.1 mph - N/A   Clear
1:00 AM 68 °F 57 °F 59% 30.04 in 12 mi WNW 4.5 mph - -   Clear
1:30 AM 68.0 °F 57.2 °F 68% 30.01 in - West 4.6 mph - N/A   Clear
2:00 AM 67 °F 57 °F 63% 30.04 in - West 6.7 mph - -  
2:00 AM 66.2 °F 57.2 °F 73% 30.01 in - West 6.9 mph - N/A   Clear
3:00 AM 66 °F 58 °F 67% 30.03 in - WNW 2.2 mph - -  
3:00 AM 66.2 °F 57.2 °F 73% 30.01 in - West 3.5 mph - N/A   Clear
3:30 AM 64.4 °F 57.2 °F 77% 30.01 in - Calm Calm - N/A   Clear
4:00 AM 65 °F 57 °F 68% 30.03 in 12 mi Calm Calm - -   Clear
4:00 AM 64.4 °F 57.2 °F 77% 30.01 in - Variable 2.3 mph - N/A   Clear
4:30 AM 64.4 °F 57.2 °F 77% 30.01 in - Variable 2.3 mph - N/A   Clear
5:00 AM 64.4 °F 59.0 °F 83% 30.01 in - WNW 3.5 mph - N/A   Clear
5:30 AM 64.4 °F 59.0 °F 83% 30.01 in - NW 2.3 mph - N/A   Clear
6:00 AM 65 °F 57 °F 69% 30.03 in - NNW 4.5 mph - -  
6:00 AM 64.4 °F 57.2 °F 77% 30.01 in - NW 3.5 mph - N/A   Clear
6:30 AM 64.4 °F 57.2 °F 77% 30.01 in - NNW 3.5 mph - N/A   Clear
7:00 AM 64 °F 57 °F 72% 30.02 in 12 mi Calm Calm - -   Clear
7:00 AM 64.4 °F 57.2 °F 77% 30.01 in - Variable 2.3 mph - N/A   Clear
7:30 AM 62.6 °F 57.2 °F 82% 30.01 in - West 4.6 mph - N/A   Clear
8:00 AM 63 °F 57 °F 75% 30.04 in - WNW 2.2 mph - -  
8:00 AM 62.6 °F 57.2 °F 82% 30.01 in - Variable 2.3 mph - N/A   Clear
8:30 AM 66.2 °F 59.0 °F 78% 30.04 in - WNW 9.2 mph - N/A   Clear
9:00 AM 69 °F 59 °F 62% 30.06 in - WNW 6.7 mph - -  
9:00 AM 68.0 °F 59.0 °F 73% 30.04 in - West 6.9 mph - N/A   Clear
9:30 AM 69.8 °F 59.0 °F 68% 30.04 in - West 8.1 mph - N/A   Clear
10:00 AM 70 °F 60 °F 63% 30.06 in 12 mi West 8.9 mph - -   Clear
10:00 AM 69.8 °F 59.0 °F 68% 30.04 in - WSW 8.1 mph - N/A   Clear
10:30 AM 71.6 °F 59.0 °F 64% 30.04 in - West 10.4 mph - N/A   Clear
11:00 AM 74 °F 60 °F 53% 30.06 in - West 11.2 mph - -  
11:30 AM 75.2 °F 62.6 °F 65% 30.04 in - WSW 12.7 mph - N/A   Clear
12:00 PM 76 °F 60 °F 48% 30.04 in - West 13.4 mph - -  
12:00 PM 75.2 °F 60.8 °F 61% 30.04 in 6.2 mi WSW 13.8 mph - N/A   Partly Cloudy
12:30 PM 75.2 °F 60.8 °F 61% 30.01 in 6.2 mi WSW 13.8 mph - N/A   Partly Cloudy
1:00 PM 77 °F 62 °F 49% 30.03 in 12 mi WSW 13.4 mph - -   Scattered Clouds
1:00 PM 75.2 °F 60.8 °F 61% 30.01 in 6.2 mi WSW 12.7 mph - N/A   Partly Cloudy
1:30 PM 75.2 °F 62.6 °F 65% 30.01 in 6.2 mi SW 13.8 mph - N/A   Partly Cloudy
2:00 PM 73.4 °F 64.4 °F 73% 30.01 in 6.2 mi SW 15.0 mph - N/A   Partly Cloudy
2:30 PM 75.2 °F 64.4 °F 69% 29.98 in 6.2 mi SW 13.8 mph - N/A   Partly Cloudy
3:00 PM 74 °F 63 °F 59% 30.01 in - SW 13.4 mph - -  
3:30 PM 73.4 °F 64.4 °F 73% 29.98 in 6.2 mi SW 15.0 mph - N/A   Partly Cloudy
4:00 PM 75 °F 63 °F 59% 30.00 in 12 mi WSW 13.4 mph - -   Scattered Clouds
4:00 PM 75.2 °F 62.6 °F 65% 29.98 in 6.2 mi WSW 15.0 mph - N/A   Partly Cloudy
4:30 PM 73.4 °F 64.4 °F 73% 29.98 in 6.2 mi WSW 12.7 mph - N/A   Partly Cloudy
5:00 PM 73.4 °F 64.4 °F 73% 29.95 in 6.2 mi WSW 11.5 mph - N/A   Partly Cloudy
5:30 PM 75.2 °F 64.4 °F 69% 29.95 in 6.2 mi WSW 10.4 mph - N/A   Partly Cloudy
6:00 PM 75 °F 64 °F 59% 29.97 in - WSW 11.2 mph - -  
6:00 PM 75.2 °F 62.6 °F 65% 29.95 in - WSW 9.2 mph - N/A   Clear
6:30 PM 75.2 °F 62.6 °F 65% 29.95 in - WSW 11.5 mph - N/A   Clear
7:00 PM 74 °F 65 °F 66% 29.96 in 12 mi WSW 5.8 mph - -   Clear
7:00 PM 73.4 °F 62.6 °F 69% 29.95 in - WSW 13.8 mph - N/A   Clear
7:30 PM 77.0 °F 59.0 °F 54% 29.95 in - West 10.4 mph - N/A   Clear
8:00 PM 76 °F 57 °F 41% 29.97 in - NNW 8.9 mph - -  
8:00 PM 75.2 °F 57.2 °F 53% 29.95 in - NW 11.5 mph - N/A   Clear
8:30 PM 75.2 °F 57.2 °F 53% 29.95 in - WNW 10.4 mph - N/A   Clear
9:00 PM 74 °F 58 °F 46% 29.99 in - WNW 8.9 mph - -  
9:00 PM 73.4 °F 57.2 °F 57% 29.98 in - WNW 10.4 mph - N/A   Clear
9:30 PM 73.4 °F 59.0 °F 61% 29.98 in - WNW 11.5 mph - N/A   Clear
10:00 PM 72 °F 59 °F 54% 30.01 in 12 mi NW 8.9 mph - -   Scattered Clouds
10:00 PM 71.6 °F 59.0 °F 64% 29.98 in - WNW 10.4 mph - N/A   Clear
10:30 PM 71.6 °F 59.0 °F 64% 29.98 in - NW 9.2 mph - N/A   Clear
11:00 PM 71 °F 58 °F 56% 30.00 in - NW 8.9 mph - -  
11:00 PM 69.8 °F 59.0 °F 68% 29.98 in - NW 10.4 mph - N/A   Clear
11:30 PM 69.8 °F 59.0 °F 68% 29.98 in - NW 8.1 mph - N/A   Clear